This is the latest recevied weather packets stored in our database for station/object N3WMC. If no packets are shown the sender has not sent any weather packets the latest 10 day(s).
| Time | Temp. | Humidity | Pressure | Rain* | Wind** | Luminosity | Snow |
|---|---|---|---|---|---|---|---|
| 1777309619 | 21.67° C | 38% | 1021.7 hPa | 0 mm | - | 733 W/m² | - |
| 1777309315 | 20.56° C | 38% | 1021.7 hPa | 0 mm | - | 697 W/m² | - |
| 1777309014 | 20.56° C | 39% | 1021.8 hPa | 0 mm | - | 660 W/m² | - |
| 1777308710 | 21.11° C | 36% | 1021.9 hPa | 0 mm | - | 718 W/m² | - |
| 1777308405 | 20° C | 37% | 1021.9 hPa | 0 mm | - | 709 W/m² | - |
| 1777308100 | 21.11° C | 39% | 1022.1 hPa | 0 mm | - | 716 W/m² | - |
| 1777307798 | 21.11° C | 37% | 1022.1 hPa | 0 mm | - | 675 W/m² | - |
| 1777307495 | 20.56° C | 37% | 1022 hPa | 0 mm | - | 712 W/m² | - |
| 1777307192 | 20° C | 37% | 1022.1 hPa | 0 mm | - | 706 W/m² | - |
| 1777306889 | 20° C | 37% | 1022.1 hPa | 0 mm | - | 674 W/m² | - |
| 1777306586 | 20° C | 39% | 1022.1 hPa | 0 mm | - | 693 W/m² | - |
| 1777306281 | 20° C | 38% | 1022.1 hPa | 0 mm | - | 667 W/m² | - |
| 1777305977 | 19.44° C | 41% | 1022.2 hPa | 0 mm | - | 652 W/m² | - |
| 1777305674 | 19.44° C | 43% | 1022.4 hPa | 0 mm | - | 637 W/m² | - |
| 1777305370 | 18.89° C | 42% | 1022.3 hPa | 0 mm | - | 621 W/m² | - |
| 1777305070 | 18.89° C | 45% | 1022.4 hPa | 0 mm | - | 609 W/m² | - |
| 1777304764 | 18.89° C | 45% | 1022.6 hPa | 0 mm | - | 591 W/m² | - |
| 1777304462 | 19.44° C | 43% | 1022.7 hPa | 0 mm | - | 592 W/m² | - |
| 1777304160 | 19.44° C | 45% | 1022.8 hPa | 0 mm | - | 598 W/m² | - |
| 1777303856 | 18.33° C | 45% | 1022.9 hPa | 0 mm | - | 594 W/m² | - |
* Rain latest hour (hover to see other rain measurements)
** Current wind speed in m/s (hover to see current wind gust speed)